Hundvaag 1 weather for Apr 1999
Month no. 142
Obs.
Da.
Temp. Dew Point Precip. Wind
Speed
Wind gusts Cloud cover Press. Humidity Wind dir. Sunny OPT
01.04.1999 8,8   0,0     1       1  
02.04.1999 8,4   0,0     10       1  
03.04.1999 8,2   0,0     10       1  
04.04.1999 6,6   0,0     10       1  
05.04.1999 9,9   0,0     0          
06.04.1999 8,2   5,0     0          
07.04.1999 5,9   8,0     0       1  
08.04.1999 4,9   1,0     0       1  
09.04.1999 8,8   10,0     0          
10.04.1999 8,4   3,0     0          
11.04.1999 6,4   8,0     0       1  
12.04.1999 4,1   0,0     0          
13.04.1999 3,4   5,0     0          
14.04.1999 3,3   11,0     0          
15.04.1999 0,1   0,0     7       1  
16.04.1999 3,2   0,0     1       1  
17.04.1999 3,1   0,0     10       1  
18.04.1999 3,7   0,0     3       1  
19.04.1999 3,8   0,0     3       1  
20.04.1999 3,4   0,0     0       1  
21.04.1999 6,0   0,0     1          
22.04.1999 6,4   0,0     10       1  
23.04.1999 8,4   0,0     0       1  
24.04.1999 8,4   0,0     2       1  
25.04.1999 6,9   0,0     10       1  
26.04.1999 10,6   0,0     3       1  
27.04.1999 7,1   0,0     10       1  
28.04.1999 7,7   0,0     0       1  
29.04.1999 4,1   0,0     10       1  
30.04.1999 6,3   4,0     1       1  
                       
Avrg/Sum 6,2   55,0     3,4       22